Voltar ao catálogo

STARLINK-31409

AtivoComunicaçõesVLEO
NORAD 59299·PAYLOAD·🇺🇸 United States

Lançado Mar 24, 2024 de Cape Canaveral Space Force Station

Loading…

Próximas Passagens (próximas 24 horas)

TLE

AtualizadoSource: CelesTrak SupGP

Época: Sep 14, 2026, 22:37 UTC

1 59299C 24056D   26257.94284722  .00018590  00000+0  67339-3 0  2571
2 59299  43.0014 235.0111 0001165 251.7559 260.0079 15.27566986    18

Acompanhe STARLINK-31409 em tempo real com AllMySat

Download on the App Store